TimeCST,TemperatureF,Dew PointF,Humidity,Sea Level PressureIn,VisibilityMPH,Wind Direction,Wind SpeedMPH,Gust SpeedMPH,PrecipitationIn,Events,Conditions,WindDirDegrees,DateUTC
12:15 AM,51.8,46.4,82,29.96,0.2,East,4.6,-,N/A,,Haze,90,2012-12-03 06:15:00
12:35 AM,51.8,46.4,82,29.95,0.2,East,3.5,-,N/A,,Haze,100,2012-12-03 06:35:00
12:55 AM,50.0,44.6,82,29.95,0.2,East,3.5,-,N/A,,Haze,80,2012-12-03 06:55:00
1:15 AM,50.0,44.6,82,29.94,0.2,East,5.8,-,N/A,,Haze,90,2012-12-03 07:15:00
1:35 AM,48.2,44.6,87,29.94,0.2,ESE,3.5,-,N/A,,Haze,120,2012-12-03 07:35:00
1:55 AM,48.2,42.8,82,29.94,0.2,ESE,4.6,-,N/A,,Haze,120,2012-12-03 07:55:00
2:15 AM,48.2,42.8,82,29.93,0.5,ESE,4.6,-,N/A,,Haze,110,2012-12-03 08:15:00
2:35 AM,48.2,42.8,82,29.92,1.2,SE,4.6,-,N/A,,Haze,130,2012-12-03 08:35:00
2:55 AM,51.8,46.4,82,29.92,2.5,SE,8.1,-,N/A,,Haze,140,2012-12-03 08:55:00
3:15 AM,51.8,46.4,82,29.91,2.5,SSE,5.8,-,N/A,,Haze,150,2012-12-03 09:15:00
3:35 AM,53.6,46.4,77,29.90,2.5,SSE,6.9,-,N/A,,Haze,150,2012-12-03 09:35:00
3:55 AM,53.6,46.4,77,29.89,3.0,SSE,4.6,-,N/A,,Haze,150,2012-12-03 09:55:00
4:15 AM,51.8,46.4,82,29.88,3.0,SSE,4.6,-,N/A,,Haze,150,2012-12-03 10:15:00
4:35 AM,53.6,48.2,82,29.88,4.0,SSE,5.8,-,N/A,,Haze,150,2012-12-03 10:35:00
4:55 AM,55.4,50.0,82,29.87,5.0,SSE,8.1,-,N/A,,Haze,160,2012-12-03 10:55:00
5:15 AM,57.2,51.8,82,29.86,7.0,South,8.1,-,N/A,,Clear,170,2012-12-03 11:15:00
5:35 AM,59.0,53.6,82,29.86,10.0,South,10.4,18.4,N/A,,Clear,180,2012-12-03 11:35:00
5:55 AM,60.8,53.6,77,29.85,10.0,South,10.4,19.6,N/A,,Clear,170,2012-12-03 11:55:00
6:15 AM,60.8,55.4,82,29.85,10.0,South,12.7,19.6,N/A,,Clear,180,2012-12-03 12:15:00
6:35 AM,60.8,55.4,82,29.85,10.0,South,11.5,20.7,N/A,,Clear,180,2012-12-03 12:35:00
6:55 AM,62.6,55.4,77,29.85,10.0,South,12.7,21.9,N/A,,Clear,180,2012-12-03 12:55:00
7:15 AM,62.6,55.4,77,29.84,10.0,South,15.0,24.2,N/A,,Clear,180,2012-12-03 13:15:00
7:35 AM,62.6,55.4,77,29.85,10.0,South,18.4,21.9,N/A,,Clear,190,2012-12-03 13:35:00
7:55 AM,62.6,55.4,77,29.85,10.0,South,15.0,23.0,N/A,,Clear,190,2012-12-03 13:55:00
8:15 AM,62.6,55.4,77,29.85,10.0,South,13.8,24.2,N/A,,Clear,190,2012-12-03 14:15:00
8:35 AM,64.4,55.4,73,29.84,10.0,South,16.1,24.2,N/A,,Clear,180,2012-12-03 14:35:00
9:15 AM,64.4,55.4,73,29.82,10.0,South,15.0,23.0,N/A,,Clear,180,2012-12-03 15:15:00
9:35 AM,64.4,55.4,73,29.82,10.0,South,18.4,25.3,N/A,,Clear,180,2012-12-03 15:35:00
9:55 AM,64.4,55.4,73,29.82,10.0,South,17.3,27.6,N/A,,Clear,190,2012-12-03 15:55:00
10:15 AM,64.4,57.2,77,29.81,10.0,South,13.8,23.0,N/A,,Clear,190,2012-12-03 16:15:00
10:35 AM,66.2,57.2,73,29.80,10.0,South,19.6,27.6,N/A,,Clear,180,2012-12-03 16:35:00
10:55 AM,66.2,57.2,73,29.79,10.0,South,18.4,31.1,N/A,,Scattered Clouds,190,2012-12-03 16:55:00
11:35 AM,69.8,59.0,68,29.77,10.0,South,20.7,25.3,N/A,,Mostly Cloudy,190,2012-12-03 17:35:00
11:55 AM,71.6,59.0,64,29.75,10.0,SSW,17.3,27.6,N/A,,Scattered Clouds,200,2012-12-03 17:55:00
12:15 PM,71.6,57.2,60,29.75,10.0,SSW,17.3,31.1,N/A,,Mostly Cloudy,200,2012-12-03 18:15:00
12:35 PM,71.6,57.2,60,29.75,10.0,SSW,19.6,24.2,N/A,,Overcast,200,2012-12-03 18:35:00
12:55 PM,71.6,57.2,60,29.75,10.0,SSW,17.3,-,N/A,,Overcast,210,2012-12-03 18:55:00
1:15 PM,71.6,57.2,60,29.75,10.0,SSW,17.3,23.0,N/A,,Overcast,210,2012-12-03 19:15:00
1:35 PM,73.4,57.2,57,29.74,10.0,SSW,16.1,24.2,N/A,,Mostly Cloudy,200,2012-12-03 19:35:00
1:55 PM,73.4,57.2,57,29.74,10.0,South,15.0,20.7,N/A,,Mostly Cloudy,190,2012-12-03 19:55:00
2:15 PM,73.4,57.2,57,29.74,10.0,SSW,15.0,23.0,N/A,,Overcast,200,2012-12-03 20:15:00
2:35 PM,73.4,57.2,57,29.75,10.0,SW,13.8,21.9,N/A,,Overcast,220,2012-12-03 20:35:00
2:55 PM,71.6,57.2,60,29.76,10.0,SW,11.5,19.6,N/A,,Overcast,230,2012-12-03 20:55:00
3:15 PM,71.6,55.4,57,29.76,10.0,SW,17.3,24.2,N/A,,Overcast,220,2012-12-03 21:15:00
3:35 PM,71.6,55.4,57,29.76,10.0,SW,13.8,21.9,N/A,,Overcast,220,2012-12-03 21:35:00
3:55 PM,71.6,55.4,57,29.77,10.0,SW,16.1,19.6,N/A,,Overcast,220,2012-12-03 21:55:00
4:15 PM,71.6,55.4,57,29.78,10.0,SW,15.0,25.3,N/A,,Mostly Cloudy,220,2012-12-03 22:15:00
4:35 PM,69.8,55.4,60,29.79,10.0,SW,12.7,-,N/A,,Scattered Clouds,220,2012-12-03 22:35:00
4:55 PM,69.8,55.4,60,29.80,10.0,SW,12.7,-,N/A,,Clear,220,2012-12-03 22:55:00
5:15 PM,69.8,55.4,60,29.81,10.0,SW,10.4,-,N/A,,Scattered Clouds,220,2012-12-03 23:15:00
5:35 PM,68.0,55.4,64,29.81,10.0,SW,9.2,-,N/A,,Mostly Cloudy,220,2012-12-03 23:35:00
5:55 PM,68.0,55.4,64,29.82,10.0,SW,8.1,-,N/A,,Overcast,220,2012-12-03 23:55:00
6:15 PM,68.0,55.4,64,29.83,10.0,SW,9.2,-,N/A,,Overcast,220,2012-12-04 00:15:00
6:35 PM,68.0,55.4,64,29.84,10.0,SSW,8.1,-,N/A,,Overcast,210,2012-12-04 00:35:00
6:55 PM,66.2,55.4,68,29.84,10.0,SSW,6.9,-,N/A,,Overcast,210,2012-12-04 00:55:00
7:15 PM,66.2,55.4,68,29.85,10.0,SSW,6.9,-,N/A,,Overcast,210,2012-12-04 01:15:00
7:35 PM,66.2,55.4,68,29.86,10.0,West,13.8,-,N/A,,Overcast,270,2012-12-04 01:35:00
7:55 PM,64.4,50.0,59,29.89,10.0,NW,12.7,21.9,N/A,,Overcast,310,2012-12-04 01:55:00
8:15 PM,60.8,46.4,59,29.91,10.0,NNW,15.0,25.3,N/A,,Light Drizzle,330,2012-12-04 02:15:00
8:35 PM,59.0,44.6,59,29.91,10.0,NW,12.7,18.4,N/A,,Overcast,320,2012-12-04 02:35:00
8:55 PM,57.2,44.6,63,29.93,10.0,NNW,10.4,18.4,N/A,,Mostly Cloudy,330,2012-12-04 02:55:00
9:15 PM,57.2,42.8,59,29.93,10.0,NNW,11.5,19.6,N/A,,Overcast,340,2012-12-04 03:15:00
9:35 PM,57.2,42.8,59,29.94,10.0,NNW,11.5,-,N/A,,Overcast,340,2012-12-04 03:35:00
9:55 PM,55.4,44.6,67,29.95,10.0,North,5.8,-,N/A,Rain,Light Rain,350,2012-12-04 03:55:00
10:15 PM,55.4,42.8,63,29.97,10.0,NNW,9.2,-,N/A,,Overcast,340,2012-12-04 04:15:00
10:35 PM,55.4,42.8,63,29.96,10.0,NNW,13.8,19.6,N/A,,Overcast,340,2012-12-04 04:35:00
10:55 PM,55.4,41.0,58,29.97,10.0,NNW,12.7,18.4,N/A,,Overcast,340,2012-12-04 04:55:00
11:15 PM,55.4,39.2,54,29.98,10.0,North,6.9,-,N/A,,Overcast,350,2012-12-04 05:15:00
11:35 PM,53.6,39.2,58,29.99,10.0,North,10.4,-,N/A,,Overcast,350,2012-12-04 05:35:00
11:55 PM,53.6,39.2,58,29.99,10.0,North,8.1,-,N/A,,Mostly Cloudy,350,2012-12-04 05:55:00